KB9HUO Weather Reports


time (UTC)temp
C
wind
direction
speed
KPH
gust
KPH
rain 1hr
cm
rain 24hr
cm
rain mn
cm
humidity
%
barometer
mb
20260906100231 22 62 4.8 4.8 0.00 0.00 0.00 96 1014.5
20260906095726 22 341 4.8 6.4 0.00 0.00 0.00 96 1014.5
20260906095216 22 27 6.4 9.7 0.00 0.00 0.00 96 1014.5
20260906094715 22 7 1.6 3.2 0.00 0.00 0.00 96 1014.4
20260906094211 22 3 4.8 6.4 0.00 0.00 0.00 96 1014.3
20260906093707 22 345 1.6 1.6 0.00 0.00 0.00 96 1014.1
20260906093201 22 340 1.6 1.6 0.00 0.00 0.00 96 1014.2
20260906092657 22 30 4.8 4.8 0.00 0.00 0.00 96 1014.2
20260906092156 22 300 0.0 1.6 0.00 0.00 0.00 96 1014.2
20260906091652 22 319 1.6 1.6 0.00 0.00 0.00 96 1014.5
20260906091149 22 333 0.0 1.6 0.00 0.00 0.00 96 1014.3
20260906090644 22 309 0.0 0.0 0.00 0.00 0.00 96 1014.2
20260906090144 22 321 1.6 1.6 0.00 0.00 0.00 96 1014.1
20260906085642 22 312 0.0 0.0 0.00 0.00 0.00 96 1014.5
20260906085137 22 304 0.0 0.0 0.00 0.00 0.00 96 1014.3
20260906084633 22 54 3.2 3.2 0.00 0.00 0.00 96 1014.2
20260906084131 22 306 0.0 1.6 0.00 0.00 0.00 96 1014.1
20260906083626 22 299 0.0 0.0 0.00 0.00 0.00 96 1014.1
20260906083121 22 295 0.0 0.0 0.00 0.00 0.00 96 1014.0
20260906082617 22 295 0.0 1.6 0.00 0.00 0.00 96 1014.0
20260906082112 22 319 1.6 1.6 0.00 0.00 0.00 96 1013.9
20260906081608 22 323 1.6 1.6 0.00 0.00 0.00 96 1013.8
20260906081103 22 321 0.0 0.0 0.00 0.00 0.00 96 1014.0
20260906080600 22 321 0.0 0.0 0.00 0.00 0.00 96 1014.0
20260906080055 22 321 0.0 0.0 0.00 0.00 0.00 96 1013.9
20260906075555 22 321 0.0 0.0 0.00 0.00 0.00 96 1013.9
20260906075049 22 321 0.0 0.0 0.00 0.00 0.00 96 1014.0
20260906074544 22 321 0.0 0.0 0.00 0.00 0.00 96 1013.9
20260906074043 22 321 0.0 0.0 0.00 0.00 0.00 96 1013.9
20260906073538 22 321 0.0 0.0 0.00 0.00 0.00 97 1013.7
20260906073034 22 321 0.0 0.0 0.00 0.00 0.00 96 1013.8
20260906072529 22 321 0.0 0.0 0.00 0.00 0.00 96 1013.9
20260906072025 22 321 0.0 0.0 0.00 0.00 0.00 96 1013.9
20260906071521 22 321 0.0 0.0 0.00 0.00 0.00 97 1014.1
20260906071016 22 321 0.0 0.0 0.00 0.00 0.00 97 1014.0
20260906070512 22 321 0.0 0.0 0.00 0.00 0.00 97 1013.8
20260906070008 22 322 0.0 0.0 0.00 0.00 0.00 97 1014.0
20260906065502 22 324 0.0 1.6 0.00 0.00 0.00 97 1014.2
20260906064957 22 308 0.0 0.0 0.00 0.00 0.00 97 1013.9
20260906064453 22 252 1.6 1.6 0.00 0.00 0.00 97 1013.9
20260906063948 21 248 0.0 0.0 0.00 0.00 0.00 97 1014.1
20260906063443 21 247 0.0 0.0 0.00 0.00 0.00 97 1014.1
20260906062943 21 246 0.0 0.0 0.00 0.00 0.00 97 1014.3
20260906062438 21 246 0.0 0.0 0.00 0.00 0.00 97 1014.3
20260906061933 21 246 0.0 0.0 0.00 0.00 0.00 97 1014.3
20260906061430 21 246 0.0 0.0 0.00 0.00 0.00 97 1014.2
20260906060924 22 246 0.0 0.0 0.00 0.00 0.00 97 1014.2
20260906060421 22 246 0.0 0.0 0.00 0.00 0.00 97 1014.4
20260906055918 22 246 0.0 0.0 0.00 0.00 0.00 97 1014.2
20260906055413 21 246 0.0 0.0 0.00 0.00 0.00 97 1014.3
20260906054908 21 246 0.0 0.0 0.00 0.00 0.00 97 1014.2
20260906054403 21 246 0.0 0.0 0.00 0.00 0.00 97 1014.3
20260906053859 21 246 0.0 0.0 0.00 0.00 0.00 97 1014.5
20260906053355 21 246 0.0 0.0 0.00 0.00 0.00 97 1014.4
20260906052850 21 246 0.0 0.0 0.00 0.00 0.00 97 1014.3
20260906052347 21 246 0.0 0.0 0.00 0.00 0.00 97 1014.3
20260906051843 21 246 0.0 0.0 0.00 0.00 0.00 97 1014.3
20260906051343 21 246 0.0 0.0 0.00 0.00 0.00 97 1014.2
20260906050838 21 246 0.0 0.0 0.00 0.00 0.00 97 1014.2
20260906050333 21 246 0.0 0.0 0.00 0.00 0.00 97 1014.2
20260906045832 21 246 0.0 0.0 0.00 0.00 0.00 97 1014.2
20260906045326 21 246 0.0 0.0 0.00 0.00 0.00 96 1014.1
20260906044823 21 246 0.0 0.0 0.00 0.00 0.00 96 1014.1
20260906044322 21 246 0.0 0.0 0.00 0.00 0.00 96 1014.0
20260906043818 22 246 0.0 0.0 0.00 0.00 0.00 96 1014.0
20260906043315 22 246 0.0 0.0 0.00 0.00 0.00 96 1013.7
20260906042809 22 246 0.0 0.0 0.00 0.00 0.00 96 1013.8
20260906042308 22 246 0.0 0.0 0.00 0.00 0.00 96 1013.6
20260906041804 22 246 0.0 0.0 0.00 0.00 0.00 96 1013.7
20260906041258 22 246 0.0 0.0 0.00 0.00 0.00 96 1013.6
20260906040754 22 246 0.0 0.0 0.00 0.00 0.00 96 1013.6
20260906040249 22 246 0.0 0.0 0.00 0.00 0.00 96 1013.4
20260906035744 22 246 0.0 0.0 0.00 0.05 0.05 96 1013.6
20260906035234 22 246 0.0 0.0 0.00 0.05 0.05 96 1013.6
20260906034733 22 246 0.0 0.0 0.00 0.05 0.05 95 1013.7
20260906034228 22 246 0.0 0.0 0.00 0.05 0.05 95 1013.9
20260906033724 22 246 0.0 0.0 0.00 0.05 0.05 95 1013.7
20260906033224 22 246 0.0 0.0 0.00 0.05 0.05 95 1013.7
20260906032721 22 319 1.6 1.6 0.00 0.05 0.05 95 1013.8
20260906032221 22 291 0.0 0.0 0.00 0.05 0.05 96 1013.7
20260906031716 22 291 0.0 0.0 0.00 0.05 0.05 96 1013.6
20260906031211 22 295 0.0 0.0 0.00 0.05 0.05 96 1013.6
20260906030711 22 314 0.0 0.0 0.00 0.05 0.05 96 1013.7
20260906030206 22 266 0.0 0.0 0.00 0.05 0.05 95 1013.4
20260906025706 22 266 0.0 0.0 0.00 0.05 0.05 95 1013.4
20260906025200 22 266 0.0 0.0 0.00 0.05 0.05 95 1013.2
20260906024654 22 266 0.0 0.0 0.00 0.05 0.05 95 1013.3
20260906024154 22 266 0.0 0.0 0.00 0.05 0.05 95 1013.5
20260906023650 22 266 0.0 0.0 0.00 0.05 0.05 95 1013.3
20260906023150 22 266 0.0 0.0 0.00 0.05 0.05 95 1013.5
20260906022644 22 266 0.0 0.0 0.00 0.05 0.05 95 1013.4
20260906022141 22 266 0.0 0.0 0.00 0.05 0.05 95 1013.4
20260906021636 22 265 0.0 0.0 0.00 0.05 0.05 94 1013.2
20260906021134 22 265 0.0 0.0 0.00 0.05 0.05 94 1013.0
20260906020629 22 265 0.0 0.0 0.00 0.05 0.05 94 1013.0
20260906020124 22 265 0.0 0.0 0.00 0.05 0.05 94 1013.1
20260906015618 22 265 0.0 0.0 0.00 0.05 0.05 94 1013.0
20260906015117 22 265 0.0 0.0 0.00 0.05 0.05 93 1013.0
20260906014612 22 265 0.0 0.0 0.00 0.05 0.05 93 1012.8
20260906014108 23 265 0.0 0.0 0.00 0.05 0.05 92 1012.9
20260906013603 23 265 0.0 0.0 0.00 0.05 0.05 92 1012.8
20260906013059 23 265 0.0 0.0 0.00 0.05 0.05 92 1012.8
20260906012559 23 265 0.0 0.0 0.00 0.05 0.05 91 1012.7
20260906012059 23 265 0.0 0.0 0.00 0.05 0.05 91 1012.7
20260906011555 23 265 0.0 0.0 0.00 0.05 0.05 90 1012.4
20260906011049 23 265 0.0 0.0 0.00 0.05 0.05 90 1012.5
20260906010545 23 265 0.0 0.0 0.00 0.05 0.05 90 1012.3
20260906010041 23 265 0.0 0.0 0.00 0.05 0.05 89 1012.2
20260906005539 23 265 0.0 0.0 0.00 0.05 0.05 89 1012.3
20260906005038 23 265 0.0 0.0 0.00 0.05 0.05 88 1012.4
20260906004533 23 265 0.0 0.0 0.00 0.05 0.05 88 1012.5
20260906004028 23 265 0.0 0.0 0.00 0.05 0.05 87 1012.4
20260906003523 23 265 0.0 0.0 0.00 0.05 0.05 87 1012.5
20260906003019 24 265 0.0 0.0 0.00 0.05 0.05 86 1012.6
20260906002519 24 266 0.0 0.0 0.00 0.05 0.05 85 1012.5
20260906002013 24 266 0.0 0.0 0.00 0.05 0.05 84 1012.9
20260906001509 25 266 0.0 0.0 0.00 0.05 0.05 83 1012.7
20260906000958 25 264 0.0 0.0 0.00 0.05 0.05 82 1012.6
20260906000455 25 264 0.0 0.0 0.00 0.05 0.05 81 1012.6
20260905235954 25 264 0.0 0.0 0.00 0.05 0.05 80 1012.7
20260905235448 25 264 0.0 0.0 0.00 0.05 0.05 78 1012.8
20260905234943 25 264 0.0 0.0 0.00 0.05 0.05 77 1013.0
20260905234438 26 264 0.0 0.0 0.00 0.05 0.05 75 1012.6
20260905233933 26 264 0.0 0.0 0.00 0.05 0.05 73 1012.8
20260905233429 26 264 0.0 0.0 0.00 0.05 0.05 72 1012.9
20260905232927 26 265 0.0 0.0 0.00 0.05 0.05 71 1013.0
20260905232423 26 260 0.0 0.0 0.00 0.05 0.05 71 1012.7
20260905231919 26 311 0.0 1.6 0.00 0.05 0.05 68 1012.8
20260905231414 25 256 0.0 0.0 0.00 0.05 0.05 70 1012.9
20260905230905 25 358 3.2 3.2 0.00 0.05 0.05 72 1013.0
20260905230403 25 311 1.6 1.6 0.00 0.05 0.05 74 1013.0
20260905225901 25 66 3.2 3.2 0.00 0.05 0.05 75 1013.2
20260905225357 26 308 1.6 3.2 0.00 0.05 0.05 74 1013.3
20260905224852 27 19 6.4 9.7 0.00 0.05 0.05 72 1013.4
20260905224348 28 310 1.6 1.6 0.00 0.05 0.05 77 1013.0
20260905223842 29 310 1.6 1.6 0.00 0.05 0.05 76 1013.0
20260905223339 30 307 3.2 3.2 0.00 0.05 0.05 73 1012.9
20260905222834 31 351 3.2 3.2 0.00 0.05 0.05 69 1012.5
20260905222333 31 286 0.0 0.0 0.00 0.05 0.05 66 1012.3
20260905221829 32 286 0.0 0.0 0.00 0.05 0.05 65 1012.2
20260905221326 32 286 0.0 0.0 0.00 0.05 0.05 63 1012.2
20260905220821 33 286 0.0 0.0 0.00 0.05 0.05 61 1012.2
20260905220318 33 286 0.0 0.0 0.00 0.05 0.05 59 1012.3
20260905215816 33 286 0.0 1.6 0.00 0.05 0.05 57 1012.0
20260905215313 33 282 0.0 0.0 0.00 0.05 0.05 59 1012.0
20260905214809 33 309 1.6 1.6 0.00 0.05 0.05 57 1012.3
20260905214304 33 298 0.0 0.0 0.00 0.05 0.05 57 1012.1
20260905213759 33 279 0.0 0.0 0.00 0.05 0.05 58 1011.9
20260905213255 33 277 0.0 0.0 0.00 0.05 0.05 61 1012.1
20260905212750 33 289 0.0 0.0 0.00 0.05 0.05 60 1012.4
20260905212249 33 284 0.0 1.6 0.00 0.05 0.05 60 1012.5
20260905211749 33 86 0.0 1.6 0.00 0.05 0.05 58 1012.5
20260905211244 33 296 1.6 1.6 0.00 0.05 0.05 59 1012.5
20260905210741 33 292 0.0 1.6 0.00 0.05 0.05 62 1012.5
20260905210240 33 285 0.0 0.0 0.00 0.05 0.05 58 1012.5
20260905205739 33 286 0.0 0.0 0.00 0.05 0.05 59 1012.5
20260905205234 33 278 0.0 0.0 0.00 0.05 0.05 57 1012.7
20260905204733 33 284 0.0 0.0 0.00 0.05 0.05 57 1012.7
20260905204229 33 281 0.0 0.0 0.00 0.05 0.05 58 1012.5
20260905203729 33 259 0.0 0.0 0.00 0.05 0.05 56 1012.8
20260905203224 33 347 1.6 3.2 0.00 0.05 0.05 56 1012.9
20260905202720 34 302 3.2 4.8 0.00 0.05 0.05 57 1012.9
20260905202216 34 287 0.0 0.0 0.00 0.05 0.05 58 1012.9
20260905201711 33 276 0.0 0.0 0.00 0.05 0.05 56 1013.0
20260905201210 33 16 1.6 3.2 0.00 0.05 0.05 59 1013.0
20260905200706 33 260 0.0 0.0 0.00 0.05 0.05 57 1013.0
20260905200201 33 271 0.0 0.0 0.00 0.05 0.05 56 1013.2
20260905195659 33 296 0.0 1.6 0.00 0.05 0.05 58 1013.0
20260905195154 33 285 1.6 1.6 0.00 0.05 0.05 56 1013.2
20260905194644 33 346 3.2 3.2 0.00 0.05 0.05 57 1013.2
20260905194143 34 310 1.6 1.6 0.00 0.05 0.05 56 1013.4
20260905193638 34 299 1.6 1.6 0.00 0.05 0.05 55 1013.5
20260905193133 35 283 0.0 0.0 0.00 0.05 0.05 56 1013.4
20260905192628 34 261 0.0 0.0 0.00 0.05 0.05 57 1013.6
20260905192125 34 252 0.0 1.6 0.00 0.05 0.05 58 1013.5
20260905191624 35 248 0.0 1.6 0.00 0.05 0.05 57 1013.4
20260905191122 35 249 0.0 1.6 0.00 0.05 0.05 58 1013.5
20260905190620 34 266 0.0 0.0 0.00 0.05 0.05 60 1013.8
20260905190115 35 252 0.0 0.0 0.00 0.05 0.05 56 1013.8
20260905185614 35 244 1.6 1.6 0.00 0.05 0.05 56 1014.1
20260905185114 35 258 0.0 0.0 0.00 0.05 0.05 57 1014.2
20260905184608 35 249 0.0 0.0 0.00 0.05 0.05 57 1014.2
20260905184107 34 235 0.0 1.6 0.00 0.05 0.05 57 1014.0
20260905183606 34 253 0.0 0.0 0.00 0.05 0.05 57 1014.2
20260905183102 35 257 0.0 1.6 0.00 0.05 0.05 55 1014.4
20260905182601 35 269 0.0 0.0 0.00 0.05 0.05 56 1014.5
20260905182056 34 252 0.0 0.0 0.00 0.05 0.05 57 1014.4
20260905181556 34 244 1.6 1.6 0.00 0.05 0.05 56 1014.5
20260905181055 34 213 3.2 3.2 0.00 0.05 0.05 57 1014.5
20260905180550 34 277 0.0 0.0 0.00 0.05 0.05 57 1014.4
20260905180046 33 244 1.6 3.2 0.00 0.05 0.05 57 1014.6
20260905175545 33 287 3.2 3.2 0.00 0.05 0.05 56 1014.8
20260905175041 33 297 1.6 1.6 0.00 0.05 0.05 57 1014.5
20260905174536 33 250 0.0 0.0 0.00 0.05 0.05 59 1014.8
20260905174031 33 209 3.2 3.2 0.00 0.05 0.05 59 1014.8
20260905173529 33 236 3.2 4.8 0.00 0.05 0.05 57 1015.1
20260905173029 33 253 1.6 1.6 0.00 0.05 0.05 57 1015.1
20260905172527 33 202 3.2 6.4 0.00 0.05 0.05 57 1015.0
20260905172023 33 257 1.6 1.6 0.00 0.05 0.05 56 1015.0
20260905171519 33 257 0.0 1.6 0.00 0.05 0.05 57 1015.0
20260905171015 33 245 1.6 1.6 0.00 0.05 0.05 58 1015.2
20260905170511 33 249 0.0 1.6 0.00 0.05 0.05 58 1015.0
20260905170006 32 246 4.8 6.4 0.00 0.05 0.05 60 1015.2
20260905165501 32 246 1.6 1.6 0.00 0.05 0.05 60 1015.2
20260905164956 32 248 1.6 1.6 0.00 0.05 0.05 62 1015.3
20260905164455 32 212 4.8 6.4 0.00 0.05 0.05 60 1015.3
20260905163950 32 238 3.2 3.2 0.00 0.05 0.05 60 1015.5
20260905163447 32 202 4.8 4.8 0.00 0.05 0.05 63 1015.3
20260905162943 31 246 3.2 4.8 0.00 0.05 0.05 62 1015.3
20260905162438 31 241 1.6 1.6 0.00 0.05 0.05 62 1015.6
20260905161932 31 246 3.2 6.4 0.00 0.05 0.05 61 1015.6
20260905161432 31 240 3.2 3.2 0.00 0.05 0.05 62 1015.7
20260905160930 31 243 3.2 4.8 0.00 0.05 0.05 62 1015.5
20260905160424 31 228 3.2 4.8 0.00 0.05 0.05 63 1015.7
20260905155918 31 226 4.8 4.8 0.00 0.05 0.05 65 1015.8
20260905155418 30 242 3.2 4.8 0.00 0.05 0.05 65 1015.5
20260905154917 30 244 3.2 4.8 0.00 0.05 0.05 65 1015.7
20260905154413 30 233 3.2 3.2 0.00 0.05 0.05 66 1015.8
20260905153908 30 235 4.8 4.8 0.00 0.05 0.05 66 1015.8
20260905153405 30 239 3.2 3.2 0.00 0.05 0.05 65 1015.9
20260905152904 29 225 4.8 6.4 0.00 0.05 0.05 67 1016.0
20260905152403 29 149 3.2 4.8 0.00 0.05 0.05 69 1015.8
20260905151858 29 230 4.8 4.8 0.00 0.05 0.05 69 1015.8
20260905151354 28 204 3.2 4.8 0.00 0.05 0.05 70 1015.9
20260905150854 28 222 3.2 4.8 0.00 0.05 0.05 71 1016.1
20260905150349 28 214 4.8 4.8 0.00 0.05 0.05 70 1015.9
20260905145846 28 223 4.8 6.4 0.00 0.05 0.05 72 1016.3
20260905145341 28 237 3.2 4.8 0.00 0.05 0.05 72 1016.1
20260905144839 27 214 3.2 4.8 0.00 0.05 0.05 73 1016.2
20260905144335 27 3 3.2 4.8 0.00 0.05 0.05 74 1016.1
20260905143833 27 231 4.8 4.8 0.00 0.05 0.05 74 1016.1
20260905143328 27 204 3.2 4.8 0.00 0.05 0.05 74 1016.3
20260905142827 27 209 3.2 3.2 0.00 0.05 0.05 78 1016.3
20260905142321 27 214 1.6 3.2 0.00 0.05 0.05 79 1016.5
20260905141812 26 229 4.8 6.4 0.00 0.05 0.05 79 1016.4
20260905141307 26 207 3.2 4.8 0.00 0.05 0.05 80 1016.4
20260905140802 26 220 3.2 3.2 0.00 0.05 0.05 79 1016.6
20260905140302 26 226 3.2 3.2 0.00 0.05 0.05 78 1016.4
20260905135801 26 308 1.6 1.6 0.00 0.05 0.05 78 1016.7
20260905135252 26 228 1.6 1.6 0.00 0.05 0.05 79 1016.5
20260905134751 26 235 4.8 6.4 0.00 0.05 0.05 79 1016.3
20260905134245 25 228 1.6 1.6 0.00 0.05 0.05 83 1016.4
20260905133740 25 207 4.8 6.4 0.00 0.05 0.05 85 1016.5
20260905133235 25 242 1.6 3.2 0.00 0.05 0.05 86 1016.6
20260905132734 25 200 3.2 4.8 0.00 0.05 0.05 87 1016.6
20260905132229 25 275 1.6 1.6 0.00 0.05 0.05 90 1016.6
20260905131725 25 260 0.0 0.0 0.00 0.05 0.05 92 1016.5
20260905131220 25 80 1.6 1.6 0.00 0.05 0.05 95 1016.6
20260905130720 24 224 1.6 3.2 0.00 0.05 0.05 97 1016.4
20260905130219 24 19 8.0 11.3 0.00 0.05 0.05 98 1016.5
20260905125714 24 271 0.0 0.0 0.00 0.05 0.05 98 1015.7
20260905125204 24 270 0.0 0.0 0.00 0.05 0.05 98 1015.6
20260905124701 24 270 0.0 0.0 0.00 0.05 0.05 98 1015.6
20260905124156 24 270 0.0 0.0 0.00 0.05 0.05 98 1015.8
20260905123651 23 271 0.0 0.0 0.00 0.05 0.05 98 1015.9
20260905123148 23 271 0.0 0.0 0.00 0.05 0.05 98 1015.7
20260905122648 23 271 0.0 0.0 0.00 0.05 0.05 98 1015.5
20260905122143 23 271 0.0 0.0 0.00 0.05 0.05 98 1015.6
20260905121642 23 271 0.0 0.0 0.00 0.05 0.05 98 1015.3
20260905121138 23 270 0.0 0.0 0.00 0.05 0.05 98 1015.4
20260905120637 23 271 0.0 0.0 0.00 0.05 0.05 98 1015.2
20260905120132 23 271 0.0 0.0 0.00 0.05 0.05 98 1015.5
20260905115631 23 270 0.0 0.0 0.00 0.05 0.05 98 1015.5
20260905115127 23 271 0.0 0.0 0.00 0.05 0.05 98 1015.5
20260905114626 23 271 0.0 0.0 0.00 0.05 0.05 98 1015.5
20260905114125 23 271 0.0 0.0 0.00 0.05 0.05 98 1015.6
20260905113620 23 271 0.0 0.0 0.00 0.05 0.05 98 1015.3
20260905113116 23 271 0.0 0.0 0.00 0.05 0.05 98 1015.4
20260905112618 23 271 0.0 0.0 0.00 0.05 0.05 98 1015.5
20260905112112 23 271 0.0 0.0 0.00 0.05 0.05 98 1015.3
20260905111606 23 272 0.0 0.0 0.00 0.05 0.05 98 1015.3
20260905111105 23 272 0.0 0.0 0.00 0.05 0.05 98 1015.3
20260905110604 23 271 0.0 0.0 0.00 0.05 0.05 98 1015.2
20260905110100 23 273 0.0 0.0 0.13 0.05 0.05 97 1014.9
20260905105554 23 273 0.0 0.0 0.13 0.05 0.05 97 1014.9
20260905105053 23 273 0.0 0.0 0.00 0.03 0.03 97 1014.5
20260905104550 23 274 0.0 0.0 0.00 0.03 0.03 97 1014.8
20260905104049 23 279 0.0 0.0 0.18 0.03 0.03 97 1014.5
20260905103544 23 303 0.0 1.6 0.18 0.03 0.03 97 1014.5
20260905103041 22 262 0.0 0.0 0.18 0.03 0.03 97 1014.5
20260905102536 22 298 0.0 0.0 0.00 0.00 0.00 97 1014.9
20260905102032 22 250 0.0 0.0 0.00 0.00 0.00 97 1014.6
20260905101531 22 250 0.0 0.0 0.00 0.00 0.00 97 1014.5
20260905101029 22 250 0.0 0.0 0.00 0.00 0.00 97 1014.9
20260905100526 22 250 0.0 0.0 0.00 0.00 0.00 97 1014.9